Time,TemperatureF,DewpointF,PressureIn,WindDirection,WindDirectionDegrees,WindSpeedMPH,WindSpeedGustMPH,Humidity,HourlyPrecipIn,Conditions,Clouds,dailyrainin,SoftwareType,DateUTC
2013-09-20 00:08:00,68.8,67.0,29.81,WNW,287,2.0,-999.0,93,-99.99,,,0.04,weatherlink.com 1.10,2013-09-20 05:08:00,
2013-09-20 00:23:00,68.1,67.0,29.79,West,281,0.0,-999.0,96,-99.99,,,0.06,weatherlink.com 1.10,2013-09-20 05:23:00,
2013-09-20 00:38:00,67.8,67.0,29.76,WNW,287,0.0,-999.0,98,-99.99,,,0.07,weatherlink.com 1.10,2013-09-20 05:38:00,
2013-09-20 00:53:00,67.6,67.0,29.76,WNW,287,0.0,-999.0,98,-99.99,,,0.10,weatherlink.com 1.10,2013-09-20 05:53:00,
2013-09-20 01:08:00,67.6,67.0,29.76,WNW,287,0.0,-999.0,99,-99.99,,,0.11,weatherlink.com 1.10,2013-09-20 06:08:00,
2013-09-20 01:24:00,67.4,67.0,29.74,WNW,287,0.0,-999.0,100,-99.99,,,0.11,weatherlink.com 1.10,2013-09-20 06:24:00,
2013-09-20 01:39:00,67.1,67.0,29.73,WNW,287,0.0,-999.0,100,-99.99,,,0.11,weatherlink.com 1.10,2013-09-20 06:39:00,
2013-09-20 01:54:00,66.9,67.0,29.71,SE,134,0.0,-999.0,100,-99.99,,,0.11,weatherlink.com 1.10,2013-09-20 06:54:00,
2013-09-20 02:09:00,67.1,67.0,29.71,SE,134,0.0,-999.0,100,-99.99,,,0.11,weatherlink.com 1.10,2013-09-20 07:09:00,
2013-09-20 02:24:00,67.1,67.0,29.72,SSE,151,0.0,-999.0,100,-99.99,,,0.11,weatherlink.com 1.10,2013-09-20 07:24:00,
2013-09-20 02:39:00,67.1,67.0,29.73,SSE,160,0.0,-999.0,100,-99.99,,,0.11,weatherlink.com 1.10,2013-09-20 07:39:00,
2013-09-20 02:54:00,67.1,67.0,29.74,SSE,160,0.0,-999.0,100,-99.99,,,0.11,weatherlink.com 1.10,2013-09-20 07:54:00,
2013-09-20 03:09:00,66.9,67.0,29.73,SSE,160,0.0,-999.0,100,-99.99,,,0.11,weatherlink.com 1.10,2013-09-20 08:09:00,
2013-09-20 03:24:00,66.9,67.0,29.74,SSE,164,0.0,-999.0,100,-99.99,,,0.11,weatherlink.com 1.10,2013-09-20 08:24:00,
2013-09-20 03:39:00,66.9,67.0,29.73,SSE,167,0.0,-999.0,100,-99.99,,,0.11,weatherlink.com 1.10,2013-09-20 08:39:00,
2013-09-20 03:54:00,66.9,67.0,29.74,South,178,0.0,-999.0,100,-99.99,,,0.11,weatherlink.com 1.10,2013-09-20 08:54:00,
2013-09-20 04:09:00,66.8,67.0,29.73,SSW,198,0.0,-999.0,100,-99.99,,,0.11,weatherlink.com 1.10,2013-09-20 09:09:00,
2013-09-20 04:24:00,66.8,67.0,29.74,SSW,198,0.0,-999.0,100,-99.99,,,0.11,weatherlink.com 1.10,2013-09-20 09:24:00,
2013-09-20 04:39:00,66.8,67.0,29.74,SSW,205,0.0,-999.0,100,-99.99,,,0.11,weatherlink.com 1.10,2013-09-20 09:39:00,
2013-09-20 04:54:00,66.9,67.0,29.74,SW,223,0.0,-999.0,100,-99.99,,,0.11,weatherlink.com 1.10,2013-09-20 09:54:00,
2013-09-20 05:09:00,66.9,67.0,29.75,SSW,213,0.0,-999.0,100,-99.99,,,0.11,weatherlink.com 1.10,2013-09-20 10:09:00,
2013-09-20 05:24:00,66.9,67.0,29.75,SSW,206,0.0,-999.0,100,-99.99,,,0.11,weatherlink.com 1.10,2013-09-20 10:24:00,
2013-09-20 05:39:00,66.9,67.0,29.75,SSW,208,0.0,-999.0,100,-99.99,,,0.11,weatherlink.com 1.10,2013-09-20 10:39:00,
2013-09-20 05:54:00,66.9,67.0,29.76,SW,217,0.0,-999.0,100,-99.99,,,0.11,weatherlink.com 1.10,2013-09-20 10:54:00,
2013-09-20 06:09:00,66.9,67.0,29.76,SSW,202,0.0,-999.0,100,-99.99,,,0.11,weatherlink.com 1.10,2013-09-20 11:09:00,
2013-09-20 06:24:00,66.9,67.0,29.76,SSW,200,0.0,-999.0,100,-99.99,,,0.11,weatherlink.com 1.10,2013-09-20 11:24:00,
2013-09-20 06:39:00,66.8,67.0,29.75,SSW,200,0.0,-999.0,100,-99.99,,,0.12,weatherlink.com 1.10,2013-09-20 11:39:00,
2013-09-20 06:54:00,66.6,67.0,29.75,WSW,237,0.0,-999.0,100,-99.99,,,0.12,weatherlink.com 1.10,2013-09-20 11:54:00,
2013-09-20 07:09:00,66.6,67.0,29.75,WSW,237,0.0,-999.0,100,-99.99,,,0.12,weatherlink.com 1.10,2013-09-20 12:09:00,
2013-09-20 07:24:00,66.6,67.0,29.75,WSW,237,0.0,-999.0,100,-99.99,,,0.12,weatherlink.com 1.10,2013-09-20 12:24:00,
2013-09-20 07:39:00,66.6,67.0,29.76,WSW,237,0.0,-999.0,100,-99.99,,,0.12,weatherlink.com 1.10,2013-09-20 12:39:00,
2013-09-20 07:54:00,66.8,67.0,29.76,WSW,239,0.0,-999.0,100,-99.99,,,0.12,weatherlink.com 1.10,2013-09-20 12:54:00,
2013-09-20 08:09:00,66.8,67.0,29.76,WSW,239,0.0,-999.0,100,-99.99,,,0.12,weatherlink.com 1.10,2013-09-20 13:09:00,
2013-09-20 08:24:00,66.9,67.0,29.76,WSW,239,0.0,-999.0,100,-99.99,,,0.12,weatherlink.com 1.10,2013-09-20 13:24:00,
2013-09-20 08:39:00,67.1,67.0,29.77,WSW,250,0.0,-999.0,100,-99.99,,,0.12,weatherlink.com 1.10,2013-09-20 13:39:00,
2013-09-20 08:54:00,67.4,67.0,29.77,WSW,250,0.0,-999.0,100,-99.99,,,0.12,weatherlink.com 1.10,2013-09-20 13:54:00,
2013-09-20 09:09:00,67.8,68.0,29.77,WSW,250,0.0,-999.0,100,-99.99,,,0.12,weatherlink.com 1.10,2013-09-20 14:09:00,
2013-09-20 09:24:00,68.1,68.0,29.77,WSW,244,0.0,-999.0,100,-99.99,,,0.12,weatherlink.com 1.10,2013-09-20 14:24:00,
2013-09-20 09:39:00,68.3,68.0,29.77,WSW,244,0.0,-999.0,100,-99.99,,,0.12,weatherlink.com 1.10,2013-09-20 14:39:00,
2013-09-20 09:54:00,68.1,68.0,29.77,West,264,0.0,-999.0,100,-99.99,,,0.12,weatherlink.com 1.10,2013-09-20 14:54:00,
2013-09-20 10:09:00,68.4,68.0,29.77,West,271,0.0,-999.0,100,-99.99,,,0.12,weatherlink.com 1.10,2013-09-20 15:09:00,
2013-09-20 10:24:00,68.6,69.0,29.77,WNW,282,0.0,-999.0,100,-99.99,,,0.12,weatherlink.com 1.10,2013-09-20 15:24:00,
2013-09-20 10:39:00,69.3,68.0,29.77,West,275,0.0,-999.0,96,-99.99,,,0.12,weatherlink.com 1.10,2013-09-20 15:39:00,
2013-09-20 10:54:00,70.3,68.0,29.77,WSW,241,0.0,-999.0,91,-99.99,,,0.12,weatherlink.com 1.10,2013-09-20 15:54:00,
2013-09-20 11:09:00,70.6,67.0,29.77,West,277,0.0,-999.0,89,-99.99,,,0.12,weatherlink.com 1.10,2013-09-20 16:09:00,
2013-09-20 11:24:00,71.1,67.0,29.78,SW,236,0.0,-999.0,88,-99.99,,,0.12,weatherlink.com 1.10,2013-09-20 16:24:00,
2013-09-20 11:39:00,71.1,66.0,29.77,WSW,244,0.0,-999.0,84,-99.99,,,0.12,weatherlink.com 1.10,2013-09-20 16:39:00,
2013-09-20 11:54:00,71.5,67.0,29.77,WSW,254,0.0,-999.0,84,-99.99,,,0.12,weatherlink.com 1.10,2013-09-20 16:54:00,
2013-09-20 12:09:00,71.5,67.0,29.77,WNW,287,2.0,-999.0,85,-99.99,,,0.12,weatherlink.com 1.10,2013-09-20 17:09:00,
2013-09-20 12:24:00,72.0,66.0,29.77,WSW,251,0.0,-999.0,82,-99.99,,,0.12,weatherlink.com 1.10,2013-09-20 17:24:00,
2013-09-20 12:39:00,71.1,65.0,29.77,WSW,240,0.0,-999.0,82,-99.99,,,0.12,weatherlink.com 1.10,2013-09-20 17:39:00,
2013-09-20 12:54:00,71.1,64.0,29.77,WSW,251,3.0,-999.0,79,-99.99,,,0.12,weatherlink.com 1.10,2013-09-20 17:54:00,
2013-09-20 13:09:00,71.1,65.0,29.77,WSW,251,2.0,-999.0,81,-99.99,,,0.12,weatherlink.com 1.10,2013-09-20 18:09:00,
2013-09-20 13:24:00,71.1,64.0,29.76,WSW,241,0.0,-999.0,78,-99.99,,,0.12,weatherlink.com 1.10,2013-09-20 18:24:00,
2013-09-20 13:39:00,70.8,64.0,29.76,WSW,256,2.0,-999.0,79,-99.99,,,0.12,weatherlink.com 1.10,2013-09-20 18:39:00,
2013-09-20 13:54:00,70.6,62.0,29.76,WSW,250,6.0,-999.0,75,-99.99,,,0.12,weatherlink.com 1.10,2013-09-20 18:54:00,
2013-09-20 14:09:00,70.8,63.0,29.76,SW,230,0.0,-999.0,77,-99.99,,,0.12,weatherlink.com 1.10,2013-09-20 19:09:00,
2013-09-20 14:24:00,70.3,62.0,29.76,WSW,244,0.0,-999.0,75,-99.99,,,0.12,weatherlink.com 1.10,2013-09-20 19:24:00,
2013-09-20 14:39:00,70.3,63.0,29.75,SSW,199,0.0,-999.0,77,-99.99,,,0.12,weatherlink.com 1.10,2013-09-20 19:39:00,
2013-09-20 14:54:00,70.8,63.0,29.75,WSW,241,0.0,-999.0,75,-99.99,,,0.12,weatherlink.com 1.10,2013-09-20 19:54:00,
2013-09-20 15:09:00,70.9,61.0,29.75,WNW,282,2.0,-999.0,71,-99.99,,,0.12,weatherlink.com 1.10,2013-09-20 20:09:00,
2013-09-20 15:24:00,70.1,61.0,29.75,West,268,4.0,-999.0,72,-99.99,,,0.12,weatherlink.com 1.10,2013-09-20 20:24:00,
2013-09-20 15:39:00,69.9,60.0,29.75,WSW,250,0.0,-999.0,72,-99.99,,,0.12,weatherlink.com 1.10,2013-09-20 20:39:00,
2013-09-20 15:54:00,69.4,59.0,29.75,WSW,237,1.0,-999.0,70,-99.99,,,0.12,weatherlink.com 1.10,2013-09-20 20:54:00,
2013-09-20 16:09:00,69.3,59.0,29.75,WSW,241,6.0,-999.0,69,-99.99,,,0.12,weatherlink.com 1.10,2013-09-20 21:09:00,
2013-09-20 16:24:00,69.3,59.0,29.75,West,281,2.0,-999.0,69,-99.99,,,0.12,weatherlink.com 1.10,2013-09-20 21:24:00,
2013-09-20 16:39:00,68.8,56.0,29.75,WSW,250,2.0,-999.0,64,-99.99,,,0.12,weatherlink.com 1.10,2013-09-20 21:39:00,
2013-09-20 16:54:00,68.6,56.0,29.75,WSW,239,7.0,-999.0,65,-99.99,,,0.12,weatherlink.com 1.10,2013-09-20 21:54:00,
2013-09-20 17:09:00,68.6,57.0,29.75,NW,323,5.0,-999.0,66,-99.99,,,0.12,weatherlink.com 1.10,2013-09-20 22:09:00,
2013-09-20 17:24:00,68.4,56.0,29.75,WSW,254,4.0,-999.0,65,-99.99,,,0.12,weatherlink.com 1.10,2013-09-20 22:24:00,
2013-09-20 17:39:00,68.4,57.0,29.75,WSW,251,0.0,-999.0,66,-99.99,,,0.12,weatherlink.com 1.10,2013-09-20 22:39:00,
2013-09-20 17:54:00,68.4,55.0,29.75,WSW,243,5.0,-999.0,63,-99.99,,,0.12,weatherlink.com 1.10,2013-09-20 22:54:00,
2013-09-20 18:09:00,68.4,54.0,29.76,West,280,2.0,-999.0,60,-99.99,,,0.12,weatherlink.com 1.10,2013-09-20 23:09:00,
2013-09-20 18:24:00,67.1,53.0,29.76,WSW,256,3.0,-999.0,60,-99.99,,,0.12,weatherlink.com 1.10,2013-09-20 23:24:00,
2013-09-20 18:39:00,66.1,52.0,29.76,West,271,8.0,-999.0,60,-99.99,,,0.12,weatherlink.com 1.10,2013-09-20 23:39:00,
2013-09-20 18:54:00,65.0,52.0,29.76,NW,319,4.0,-999.0,64,-99.99,,,0.12,weatherlink.com 1.10,2013-09-20 23:54:00,
2013-09-20 19:09:00,64.2,53.0,29.77,WNW,289,3.0,-999.0,66,-99.99,,,0.12,weatherlink.com 1.10,2013-09-21 00:09:00,
2013-09-20 19:24:00,63.1,53.0,29.78,West,281,2.0,-999.0,69,-99.99,,,0.12,weatherlink.com 1.10,2013-09-21 00:24:00,
2013-09-20 19:39:00,62.0,53.0,29.78,WNW,282,0.0,-999.0,72,-99.99,,,0.12,weatherlink.com 1.10,2013-09-21 00:39:00,
2013-09-20 19:54:00,60.9,53.0,29.78,WNW,301,0.0,-999.0,75,-99.99,,,0.12,weatherlink.com 1.10,2013-09-21 00:54:00,
2013-09-20 20:09:00,60.4,53.0,29.78,WNW,287,3.0,-999.0,76,-99.99,,,0.12,weatherlink.com 1.10,2013-09-21 01:09:00,
2013-09-20 20:24:00,59.8,53.0,29.78,WNW,284,0.0,-999.0,78,-99.99,,,0.12,weatherlink.com 1.10,2013-09-21 01:24:00,
2013-09-20 20:39:00,59.0,53.0,29.79,WNW,284,0.0,-999.0,80,-99.99,,,0.12,weatherlink.com 1.10,2013-09-21 01:39:00,
2013-09-20 20:54:00,58.6,53.0,29.79,WNW,284,0.0,-999.0,81,-99.99,,,0.12,weatherlink.com 1.10,2013-09-21 01:54:00,
2013-09-20 21:09:00,58.3,53.0,29.79,West,278,0.0,-999.0,82,-99.99,,,0.12,weatherlink.com 1.10,2013-09-21 02:09:00,
2013-09-20 21:24:00,58.1,53.0,29.79,West,278,0.0,-999.0,83,-99.99,,,0.12,weatherlink.com 1.10,2013-09-21 02:24:00,
2013-09-20 21:39:00,57.6,53.0,29.79,West,278,0.0,-999.0,85,-99.99,,,0.12,weatherlink.com 1.10,2013-09-21 02:39:00,
2013-09-20 21:54:00,57.6,53.0,29.80,West,278,0.0,-999.0,85,-99.99,,,0.12,weatherlink.com 1.10,2013-09-21 02:54:00,
2013-09-20 22:09:00,57.2,53.0,29.80,West,278,0.0,-999.0,87,-99.99,,,0.12,weatherlink.com 1.10,2013-09-21 03:09:00,
2013-09-20 22:24:00,56.7,53.0,29.80,West,278,0.0,-999.0,88,-99.99,,,0.12,weatherlink.com 1.10,2013-09-21 03:24:00,
2013-09-20 22:39:00,56.5,53.0,29.80,West,271,0.0,-999.0,88,-99.99,,,0.12,weatherlink.com 1.10,2013-09-21 03:39:00,
2013-09-20 22:54:00,56.5,53.0,29.80,WNW,292,0.0,-999.0,89,-99.99,,,0.12,weatherlink.com 1.10,2013-09-21 03:54:00,
2013-09-20 23:09:00,56.3,53.0,29.79,WNW,282,1.0,-999.0,89,-99.99,,,0.12,weatherlink.com 1.10,2013-09-21 04:09:00,
2013-09-20 23:24:00,55.9,53.0,29.79,West,277,0.0,-999.0,90,-99.99,,,0.12,weatherlink.com 1.10,2013-09-21 04:24:00,
2013-09-20 23:39:00,55.3,53.0,29.80,West,277,0.0,-999.0,91,-99.99,,,0.12,weatherlink.com 1.10,2013-09-21 04:39:00,
2013-09-20 23:54:00,55.0,53.0,29.79,WNW,295,0.0,-999.0,93,-99.99,,,0.12,weatherlink.com 1.10,2013-09-21 04:54:00,